EW0412 Weather Reports


time (UTC)temp
F
wind
direction
speed
knots
gust
knots
rain 1hr
in
rain 24hr
in
rain mn
in
humidity
%
barometer
mb
20260504215043 79 257 4.3 11.3 0.00 0.00 0.00 36 1012.5
20260504214037 79 180 3.5 10.4 0.00 0.00 0.00 36 1012.5
20260504213037 79 170 4.3 12.2 0.00 0.00 0.00 35 1012.6
20260504212039 80 196 5.2 12.2 0.00 0.00 0.00 35 1012.8
20260504211041 80 192 2.6 11.3 0.00 0.00 0.00 35 1012.9
20260504210039 80 161 3.5 8.7 0.00 0.00 0.00 34 1013.0
20260504205041 80 210 4.3 8.7 0.00 0.00 0.00 34 1013.0
20260504204058 80 248 2.6 10.4 0.00 0.00 0.00 37 1013.1
20260504203037 80 235 4.3 10.4 0.00 0.00 0.00 34 1013.3
20260504202039 79 187 2.6 9.6 0.00 0.00 0.00 34 1013.4
20260504201037 80 171 3.5 9.6 0.00 0.00 0.00 34 1013.5
20260504200036 79 216 4.3 13.0 0.00 0.00 0.00 35 1013.6
20260504195039 79 175 4.3 9.6 0.00 0.00 0.00 35 1013.7
20260504194040 79 217 3.5 9.6 0.00 0.00 0.00 37 1013.8
20260504193048 79 154 4.3 10.4 0.00 0.00 0.00 35 1013.8
20260504192036 79 167 4.3 10.4 0.00 0.00 0.00 36 1014.1
20260504191035 79 179 3.5 13.9 0.00 0.00 0.00 37 1014.2
20260504190036 79 239 5.2 13.9 0.00 0.00 0.00 36 1014.2
20260504185035 79 236 3.5 11.3 0.00 0.00 0.00 37 1014.3
20260504184041 78 152 3.5 13.9 0.00 0.00 0.00 37 1014.3
20260504183034 78 154 5.2 10.4 0.00 0.00 0.00 35 1014.4
20260504182037 78 252 5.2 9.6 0.00 0.00 0.00 40 1014.5
20260504181034 77 204 3.5 9.6 0.00 0.00 0.00 40 1014.7
20260504180114 78 239 4.3 9.6 0.00 0.00 0.00 40 1014.7
20260504175037 77 203 3.5 7.8 0.00 0.00 0.00 38 1014.8
20260504174048 77 159 3.5 7.8 0.00 0.00 0.00 37 1015.0
20260504173032 77 237 2.6 8.7 0.00 0.00 0.00 38 1015.2
20260504172118 76 237 4.3 8.7 0.00 0.00 0.00 43 1015.3
20260504171037 76 249 3.5 9.6 0.00 0.00 0.00 43 1015.4
20260504151038 71 249 4.3 9.6 0.00 0.00 0.00 54 1016.3
20260504141036 67 242 3.5 8.7 0.00 0.00 0.00 57 1016.3
20260504100215 49 231 0.9 3.5 0.00 0.00 0.00 88 1015.9
20260504081059 48 0.0 1.7 0.00 0.00 0.00 91 1016.0
20260504045031 50 258 0.0 1.7 0.00 0.00 0.00 87 1017.6
20260504044031 50 258 0.0 1.7 0.00 0.00 0.00 88 1017.7
20260504043035 51 0.0 0.0 0.00 0.00 0.00 87 1017.7
20260504042052 51 0.0 1.7 0.00 0.00 0.00 86 1017.8
20260504041040 51 258 0.9 1.7 0.00 0.00 0.00 87 1017.9
20260504040035 51 258 0.0 1.7 0.00 0.00 0.00 87 1017.9
20260504035036 51 0.0 0.0 0.00 0.00 0.00 87 1017.9
20260504034029 52 0.0 0.0 0.00 0.00 0.00 87 1017.9
20260504033032 52 0.0 0.0 0.00 0.00 0.00 86 1018.1
20260504032033 53 0.0 0.0 0.00 0.00 0.00 84 1018.1
20260504031033 53 0.0 0.0 0.00 0.00 0.00 84 1018.2
20260504030032 53 0.0 0.0 0.00 0.00 0.00 83 1018.2
20260504025039 53 0.0 0.0 0.00 0.00 0.00 83 1018.0
20260504024029 54 0.0 0.0 0.00 0.00 0.00 82 1018.1
20260504023032 54 0.0 0.0 0.00 0.00 0.00 80 1018.1
20260504022030 55 0.0 0.0 0.00 0.00 0.00 81 1018.0
20260504021113 55 0.0 0.0 0.00 0.00 0.00 79 1017.8
20260504020037 55 0.0 0.0 0.00 0.00 0.00 78 1017.6
20260504015031 56 0.0 0.0 0.00 0.00 0.00 78 1017.5
20260504014037 57 0.0 0.0 0.00 0.00 0.00 78 1017.4
20260504013027 57 0.0 0.0 0.00 0.00 0.00 75 1017.4
20260504012034 58 0.0 0.0 0.00 0.00 0.00 73 1017.3
20260504011037 59 0.0 0.0 0.00 0.00 0.00 69 1017.1
20260504010045 60 0.0 0.0 0.00 0.00 0.00 67 1017.0
20260504005042 62 0.0 0.0 0.00 0.00 0.00 64 1017.0
20260504004037 64 0.0 0.0 0.00 0.00 0.00 60 1016.8
20260504003040 66 0.0 0.0 0.00 0.00 0.00 54 1016.9
20260504002055 69 0.0 0.9 0.00 0.00 0.00 47 1016.9
20260504001043 71 258 0.0 1.7 0.00 0.00 0.00 40 1016.9
20260504000047 73 258 0.0 2.6 0.00 0.00 0.00 42 1016.9
20260503235043 73 258 0.9 3.5 0.00 0.00 0.00 35 1016.8
20260503234123 73 274 1.7 4.3 0.00 0.00 0.00 31 1016.9
20260503233058 73 255 1.7 6.1 0.00 0.00 0.00 32 1017.1
20260503232040 73 253 3.5 7.0 0.00 0.00 0.00 30 1017.0
20260503231058 74 284 3.5 6.1 0.00 0.00 0.00 30 1017.1
20260503230111 75 284 2.6 7.8 0.00 0.00 0.00 32 1017.2
20260503225042 75 298 2.6 7.8 0.00 0.00 0.00 31 1017.2
20260503224101 74 284 2.6 7.8 0.00 0.00 0.00 31 1017.3
20260503223038 75 260 0.9 7.0 0.00 0.00 0.00 29 1017.3
20260503222040 75 276 3.5 7.0 0.00 0.00 0.00 33 1017.3
20260503221043 75 304 1.7 6.1 0.00 0.00 0.00 32 1017.4
20260503220104 75 317 3.5 7.0 0.00 0.00 0.00 32 1017.4